Regional Weather Roundup
Issued by NWS

Home | Current Version | Previous Version | Graphics & Text | Print | Product List | Glossary Off
Versions: 1 2 3 4 5 6 7 8 9 10 11 12 13 14 15 16 17 18 19 20 21 22 23 24 25 26 27 28 29 30 31 32 33 34 35 36 37 38 39 40 41 42 43 44 45 46 47 48 49 50

000
ASUS43 KTOP 060859
RWRKS

WEATHER ROUNDUP FOR KANSAS
NATIONAL WEATHER SERVICE GOODLAND KS
400 AM CDT MON JUL 06 2015

NOTE:  "FAIR" INDICATES FEW OR NO CLOUDS BELOW 12,000 FEET WITH NO
SIGNIFICANT WEATHER AND/OR OBSTRUCTIONS TO VISIBILITY.

KSZ001>006-013>018-027>032-041>047-061000-
NORTHWEST KANSAS

CITY           SKY/WX    TMP DP  RH WIND       PRES   REMARKS
GOODLAND       CLOUDY    68  66  93 N17G23    29.93S
HAYS           CLOUDY    79  63  57 S18G26    29.82F
HILL CITY      CLOUDY    82  65  56 S7        29.83F
RUSSELL        CLOUDY    79  67  66 S22       29.80F
$$

KSZ061>065-074>080-084>089-061000-
SOUTHWEST KANSAS

CITY           SKY/WX    TMP DP  RH WIND       PRES   REMARKS
DODGE CITY     PTCLDY    74  64  71 S17       29.88S
ELKHART          N/A     73  61  66 W9          N/A
GARDEN CITY    MOCLDY    74  65  73 S12       29.87R
GREAT BEND     MOCLDY    79  64  61 S18G24    29.84F
LIBERAL        CLEAR     75  63  64 S10       29.90S
$$

KSZ066>073-081>083-090>101-061000-
SOUTHEAST KANSAS

CITY           SKY/WX    TMP DP  RH WIND       PRES   REMARKS
CHANUTE        MOCLDY    74  71  91 S10       29.93F
COFFEYVILLE    MOCLDY    75  71  87 SE8       29.93S
HUTCHINSON     MOCLDY    79  66  64 S14       29.86F
MEDICINE LODGE   N/A     78  67  68 S10       29.86F
NEWTON         MOCLDY    79  64  61 S17       29.89F
PARSONS        MOCLDY    76  72  87 VRB6      29.94F
WICHITA INTL   MOCLDY    79  69  71 S13       29.87F
WICHITA JABRA  MOCLDY    78  68  71 S14       29.87F
WINFIELD       CLOUDY    79  69  71 S15       29.90F
$$

KSZ007>012-019>026-033>040-048>060-102>105-061000-
NORTHEAST KANSAS

CITY           SKY/WX    TMP DP  RH WIND       PRES   REMARKS
CONCORDIA      CLOUDY    81  68  64 SW17G24   29.81S
EMPORIA        CLOUDY    76  70  82 S12       29.89S
LAWRENCE       MOCLDY    74  71  91 SE6       29.89S
MANHATTAN      CLOUDY    80  71  74 S8        29.83S
OLATHE IND     MOCLDY    73  69  87 S13       29.92R
OLATHE EXE     MOCLDY    72  69  90 S12       29.92R
SALINA         CLOUDY    81  68  64 S12       29.82F
TOPEKA BILLARD MOCLDY    79  72  79 S7        29.87S
TOPEKA FORBES  CLOUDY    79  71  76 S10       29.88S
$$



USA.gov is the U.S. government's official web portal to all federal, state and local government web resources and services.